SCP
0 0 0 0 0 0 0 0 0 0 0 0 0 0 0 0 0 0 0 0 0 0 0 0 0 0 0 0 0 0 0 0 0 0 1 1 1 1 1 1 1 1 1
0 0 0 0 0 0 0 0 0 0 0 0 0 0 0 0 0 0 0 0 0 0 0 0 0 0 0 0 0 0 0 0 0 0 0 0 1 1 1 1 1 1 1
0 0 0 0 0 0 0 0 0 0 0 0 0 0 0 0 0 0 0 0 0 0 0 0 0 0 0 0 0 0 0 0 0 0 0 0 0 1 1 1 0 1 1
0 0 0 0 0 0 0 0 0 0 0 0 0 0 0 0 0 0 0 0 0 0 0 0 0 0 0 0 0 0 0 0 0 0 0 0 0 0 1 1 1 0 1
0 0 0 0 0 0 0 0 0 0 0 0 0 0 0 0 0 -0 0 0 0 0 0 0 0 0 0 0 0 0 0 0 0 0 0 0 0 0 0 0 0 1 0
0 0 0 0 0 0 0 0 0 0 0 -0 0 0 0 0 0 0 0 0 0 0 0 0 0 0 0 0 0 0 0 0 0 0 0 0 0 0 0 0 0 0 1
0 0 0 0 0 0 0 0 0 0 0 -0 -0 0 0 0 0 0 0 0 0 0 0 0 0 0 0 0 0 0 0 0 0 0 0 0 0 0 0 0 0 0 0
0 0 0 0 0 0 0 0 0 0 0 0 -0 -0 0 0 0 0 0 0 0 0 0 0 0 0 0 0 0 0 0 0 0 0 0 0 0 0 0 0 0 0 0
0 0 0 0 0 0 0 0 0 0 0 0 0 -0 0 0 0 0 0 0 0 0 0 0 0 0 0 0 0 0 0 0 0 0 0 0 0 0 0 0 0 0 0
0 0 0 0 0 0 0 0 0 0 0 0 0 0 0 0 0 0 0 0 0 0 0 0 0 0 0 0 0 0 0 0 0 0 0 0 0 0 0 0 0 0 0
0 0 0 0 0 0 0 0 0 0 0 0 0 0 0 0 0 0 0 0 0 0 0 0 0 0 0 0 0 0 -0 0 0 0 0 0 0 0 0 0 0 0 0
0 0 0 0 0 0 0 0 0 0 0 0 0 0 0 0 0 0 0 0 0 0 0 0 0 0 0 0 0 -0 -0 -0 0 0 0 0 0 0 0 0 0 0 0
0 0 0 0 0 0 0 0 0 0 0 0 0 0 0 0 0 0 0 0 0 -0 -0 0 0 0 -0 0 -0 -0 -0 -0 -0 -0 0 0 0 0 0 0 0 0 0
0 0 0 0 0 0 0 0 0 0 0 0 0 0 0 0 0 0 0 0 0 0 0 0 0 -0 -0 0 0 0 0 0 -0 0 0 0 0 0 0 0 0 0 0
0 0 0 0 0 0 0 0 0 0 0 0 0 0 0 0 0 0 0 0 0 0 0 0 0 0 0 0 0 0 0 0 0 0 0 0 0 0 0 0 0 0 0
0 0 0 0 0 0 0 0 0 0 0 0 0 0 0 0 0 0 0 0 0 0 0 0 0 0 0 0 0 0 0 0 0 0 0 0 0 0 0 0 0 0 0
0 0 0 0 0 0 0 0 0 0 0 0 0 0 0 0 0 0 0 0 0 0 0 0 0 0 0 0 0 0 0 0 0 0 0 0 0 0 0 0 0 0 0
0 0 0 0 0 0 0 0 0 0 0 0 0 0 0 0 0 0 0 0 0 0 0 0 0 0 0 0 0 0 0 0 0 0 0 0 0 0 0 0 0 0 0
0 0 0 0 0 0 0 0 0 0 0 0 0 0 0 0 0 0 0 0 0 0 0 0 0 0 0 0 0 0 0 0 0 0 0 0 0 0 0 0 0 0 0
0 0 0 0 0 0 0 0 0 0 0 0 0 0 0 0 0 0 0 0 0 0 0 0 0 0 0 0 0 0 0 0 0 0 0 0 0 0 0 0 0 0 0
0 0 0 0 0 0 0 0 0 0 0 0 0 0 0 0 0 0 0 0 0 0 0 0 0 0 0 0 0 0 0 0 0 0 0 0 0 0 0 0 0 0 0
0 0 0 0 0 0 0 0 0 0 0 0 0 0 0 0 0 0 0 0 0 0 0 0 0 0 0 0 0 0 0 0 0 0 0 0 0 0 0 0 0 0 0
0 0 0 0 0 0 0 0 0 0 0 0 0 0 0 0 0 0 0 0 0 0 0 0 0 0 0 0 0 0 0 0 0 0 0 0 0 0 0 0 0 0 0
0 0 0 0 0 0 0 0 0 0 0 0 0 0 0 0 0 0 0 0 0 0 0 0 0 0 0 0 0 0 0 0 0 0 0 0 0 0 0 0 0 0 0
0 0 0 0 0 0 0 0 0 0 0 0 0 0 0 0 0 0 0 0 0 0 0 0 0 0 0 0 0 0 0 0 0 0 0 0 0 0 0 0 0 0 0
0 0 0 0 0 0 0 0 0 0 0 0 0 0 0 0 0 0 0 0 0 0 0 0 0 0 0 0 0 0 0 0 0 0 0 0 0 0 0 -0 -0 0 0
Wind_Speed_500mb
25 25 24 23 21 23 25 27 32 34 34 32 29 30 28 28 28 30 33 33 33 32 34 34 34 34 34 35 34 32 37 45 53 53 50 49 52 55 55 61 61 61 61
28 27 26 23 23 23 26 30 34 36 36 35 31 31 31 31 31 30 31 32 34 35 35 35 34 37 38 37 36 37 35 38 44 54 49 51 56 56 58 59 66 66 67
32 29 28 26 24 24 28 31 34 36 36 37 37 36 36 35 35 36 32 29 29 29 33 35 35 35 36 38 40 41 41 41 42 47 57 55 57 59 57 61 64 69 71
35 32 31 29 27 26 30 34 36 36 36 39 40 37 37 37 37 32 31 28 25 24 22 21 23 29 31 32 34 35 34 40 45 47 50 61 62 62 59 60 63 68 72
41 36 33 31 26 27 30 31 33 36 39 40 42 43 43 41 32 35 29 19 25 33 32 31 31 27 26 35 34 33 34 30 30 39 44 44 57 65 65 61 65 66 71
46 41 38 34 28 29 31 32 32 32 37 44 49 51 47 37 39 24 12 42 40 34 28 40 40 38 42 32 28 52 50 46 43 37 34 37 34 47 68 68 64 67 69
49 44 40 34 29 30 33 34 33 33 34 42 52 54 47 41 25 12 43 47 35 42 44 43 40 40 46 51 56 49 56 51 51 51 48 42 48 52 44 66 70 66 69
54 50 45 37 32 33 35 36 36 35 35 40 45 47 37 38 17 54 31 46 39 26 40 47 56 60 60 62 62 55 64 63 63 61 60 62 64 60 63 52 64 72 67
61 57 50 42 33 34 36 37 38 35 34 35 35 27 16 12 71 59 68 37 52 56 59 58 64 65 67 64 69 73 75 68 72 72 69 71 74 73 67 64 69 74 80
65 62 54 45 37 35 39 38 37 36 36 36 36 31 32 38 24 39 54 72 62 72 80 75 70 68 71 74 72 74 76 78 79 74 79 79 81 83 85 79 74 77 78
67 65 58 51 43 37 41 39 37 37 40 40 39 40 42 42 44 43 64 56 83 86 84 79 92 82 78 78 79 81 83 83 77 81 85 84 86 86 88 89 87 83 86
70 69 64 56 47 39 41 40 39 40 43 43 42 40 40 43 50 49 70 90 91 91 93 98 87 82 85 83 82 87 90 90 89 95 93 90 89 86 86 85 85 88 86
77 73 67 61 51 42 42 42 43 44 46 46 45 40 40 41 43 48 61 83 95 113 113 95 82 86 91 88 94 99 105 108 104 105 104 100 98 97 88 76 82 83 82
75 67 67 63 55 47 45 47 46 47 47 47 44 41 40 41 43 47 56 67 98 102 109 80 103 93 95 96 106 109 117 120 117 114 79 95 103 106 106 103 96 77 77
73 71 69 63 57 49 47 50 49 49 48 46 40 39 40 44 47 52 57 59 61 66 128 89 101 105 111 116 119 115 117 122 120 117 101 100 104 113 107 103 107 102 87
80 76 70 64 58 49 49 52 52 50 48 43 42 41 42 48 52 56 60 62 62 68 96 119 121 122 124 123 123 119 122 120 123 122 111 99 102 100 102 105 105 101 97
83 78 70 64 58 51 52 53 52 51 47 43 41 44 47 51 57 59 61 64 66 66 90 150 122 122 121 123 125 121 119 118 118 109 95 89 88 92 96 99 99 104 102
83 78 72 67 62 57 59 55 52 50 49 44 44 48 50 54 59 61 63 66 67 69 74 109 132 127 123 120 121 114 115 112 108 100 90 84 83 84 88 96 102 106 111
85 80 75 68 62 61 59 55 51 48 48 45 45 48 53 58 61 62 63 68 68 66 70 86 126 120 126 120 116 105 109 117 108 90 85 79 76 73 78 83 88 96 113
86 83 75 70 67 64 59 55 51 49 46 46 46 50 56 59 62 63 64 64 67 69 74 84 104 122 107 108 103 104 110 100 103 98 94 88 85 81 78 80 83 93 100
86 84 79 75 72 66 58 52 50 49 45 45 46 51 56 57 58 56 55 61 64 73 78 83 94 96 106 100 90 98 101 112 108 94 101 95 78 79 78 82 76 64 89
88 88 84 79 71 62 54 52 52 46 47 44 47 52 55 56 54 54 52 56 61 73 85 89 98 99 112 102 102 98 99 104 118 81 83 99 81 100 105 87 87 62 48
89 92 86 77 68 58 52 50 48 51 44 44 47 51 55 53 52 59 64 62 66 70 75 87 106 111 114 111 103 108 103 108 119 102 84 121 95 115 106 93 84 82 70
92 95 87 77 66 53 53 50 52 44 41 43 44 48 52 50 50 60 64 71 79 88 92 87 94 108 109 115 107 111 118 118 129 115 82 110 92 107 103 99 87 77 66
96 97 83 75 64 57 54 56 48 41 39 41 41 44 46 49 58 52 61 79 94 97 80 78 83 87 91 96 96 99 108 98 109 104 80 89 95 94 93 100 90 78 66
95 91 81 72 58 52 61 51 45 36 37 37 41 44 47 51 49 50 63 77 92 96 86 94 97 93 106 116 85 78 91 97 99 113 99 83 80 69 87 96 84 57 51
Wind_Direction_500mb
251 257 263 270 277 284 295 304 307 310 312 314 313 310 308 310 312 311 309 305 299 296 292 289 286 283 282 280 280 276 270 264 257 255 262 262 265 264 260 259 256 255 253
248 256 261 267 272 281 292 300 307 316 321 320 320 320 321 322 318 314 309 304 298 291 288 283 281 280 280 280 275 274 272 266 262 259 256 255 261 263 261 259 256 254 254
242 249 254 259 267 281 294 303 311 319 321 320 322 326 327 327 323 320 316 313 306 299 290 288 290 289 285 283 279 274 270 271 270 263 252 252 251 263 262 259 259 255 254
239 241 246 251 261 282 294 302 313 321 323 321 322 324 326 330 330 326 321 317 317 313 306 302 298 300 294 292 288 283 277 271 268 267 265 258 252 250 261 263 259 259 255
232 236 244 250 262 282 291 302 313 318 322 322 323 327 333 332 332 326 329 3 352 333 317 313 316 312 306 312 309 315 312 304 288 279 272 272 262 257 253 259 262 259 258
228 232 241 247 261 278 289 298 305 316 324 324 328 328 332 332 330 334 346 329 325 324 312 312 310 310 314 312 308 314 306 301 301 306 305 298 286 261 251 257 260 261 259
229 233 238 244 262 280 289 294 299 311 322 325 327 324 332 336 338 342 323 317 329 302 305 306 306 302 301 300 303 306 304 303 297 295 281 269 266 257 261 248 255 259 259
232 234 237 242 258 276 286 291 296 307 319 327 331 335 336 341 332 319 324 312 314 321 311 304 302 299 299 307 305 301 303 304 306 298 292 291 286 275 261 257 250 251 254
233 234 235 239 250 272 282 283 289 299 310 317 323 327 334 309 320 321 322 318 311 309 306 303 300 299 303 305 305 306 305 302 300 300 297 293 287 282 275 269 262 249 244
234 234 235 239 249 269 279 279 283 294 302 307 311 313 311 303 303 307 311 311 311 309 310 307 304 305 307 306 305 304 307 306 304 305 302 297 289 285 278 275 269 258 249
234 235 236 239 245 261 275 274 281 291 298 302 304 309 308 305 302 292 297 304 306 309 310 310 312 311 313 313 311 306 305 304 301 297 295 294 292 287 284 277 271 266 257
234 235 236 239 243 254 270 273 279 285 292 297 300 303 302 302 306 303 303 309 310 313 310 309 309 314 316 314 309 308 307 305 302 299 296 291 286 283 280 277 276 271 262
232 234 235 238 243 252 267 272 275 283 290 294 297 299 296 300 301 304 302 307 307 310 310 309 310 316 313 314 312 310 306 304 302 298 294 291 285 279 275 278 276 275 271
239 236 235 236 241 248 261 267 271 278 283 289 294 296 299 303 302 303 302 305 308 306 305 306 309 310 310 309 306 304 300 299 299 297 291 287 284 282 277 271 270 270 268
235 233 234 236 238 245 257 264 269 276 282 287 288 293 298 301 302 301 300 296 295 302 304 304 306 304 303 303 302 300 298 296 295 292 288 285 284 283 276 273 265 263 268
233 232 233 234 238 244 256 262 268 274 279 283 286 291 293 295 297 297 295 293 290 286 289 297 297 298 301 302 301 298 296 296 292 291 288 283 282 278 276 270 265 263 262
233 232 232 234 238 245 254 261 268 274 276 279 284 286 290 294 295 295 294 293 290 285 282 294 294 299 300 301 302 304 305 303 299 293 286 282 279 277 274 271 268 263 259
232 231 232 232 236 242 251 257 263 270 274 279 283 287 292 295 296 298 299 297 294 294 285 291 300 301 302 304 307 304 306 307 302 296 288 283 281 280 278 276 271 265 257
231 230 230 232 236 242 248 255 261 267 273 279 284 290 296 298 299 302 303 301 300 294 289 288 297 302 305 305 303 298 301 304 300 294 289 285 283 282 279 277 275 269 255
230 229 228 230 234 241 247 254 260 267 272 279 286 293 297 299 302 303 303 299 300 298 294 283 283 291 291 296 296 295 297 294 295 295 293 289 289 288 285 276 276 266 263
229 227 225 227 232 238 244 250 260 268 273 280 290 296 297 300 302 305 295 293 296 295 289 282 279 282 286 289 289 294 292 294 290 289 293 298 298 296 289 282 273 280 269
226 224 224 226 231 237 242 250 259 266 272 283 293 296 299 302 304 305 298 288 287 290 288 286 285 282 282 282 286 284 285 288 288 288 289 286 287 289 293 288 270 274 273
223 222 222 225 231 235 242 252 266 267 277 287 294 297 300 302 307 315 311 295 294 290 285 287 286 283 284 286 286 284 282 281 280 284 282 282 284 286 291 296 281 280 280
222 220 219 224 227 230 241 255 258 265 275 285 289 299 302 310 315 305 306 304 302 299 296 293 287 288 286 288 285 283 283 278 280 279 273 273 278 281 288 294 285 279 273
218 217 217 221 222 230 242 246 254 264 273 280 294 299 307 310 309 304 304 305 304 305 301 297 293 286 284 284 283 284 281 278 274 276 270 266 274 278 285 290 287 275 269
218 216 216 218 219 233 240 246 248 252 266 285 294 303 309 306 303 305 306 306 301 310 317 312 303 291 287 291 291 278 281 272 270 275 268 275 279 279 282 283 287 278 262
Wind_Speed_850mb
25 25 24 23 21 23 25 27 32 34 34 32 29 30 28 28 28 30 33 33 33 32 34 34 34 34 34 35 34 32 37 45 53 53 50 49 52 55 55 61 61 61 61
28 27 26 23 23 23 26 30 34 36 36 35 31 31 31 31 31 30 31 32 34 35 35 35 34 37 38 37 36 37 35 38 44 54 49 51 56 56 58 59 66 66 67
32 29 28 26 24 24 28 31 34 36 36 37 37 36 36 35 35 36 32 29 29 29 33 35 35 35 36 38 40 41 41 41 42 47 57 55 57 59 57 61 64 69 71
35 32 31 29 27 26 30 34 36 36 36 39 40 37 37 37 37 32 31 28 25 24 22 21 23 29 31 32 34 35 34 40 45 47 50 61 62 62 59 60 63 68 72
41 36 33 31 26 27 30 31 33 36 39 40 42 43 43 41 32 35 29 19 25 33 32 31 31 27 26 35 34 33 34 30 30 39 44 44 57 65 65 61 65 66 71
46 41 38 34 28 29 31 32 32 32 37 44 49 51 47 37 39 24 12 42 40 34 28 40 40 38 42 32 28 52 50 46 43 37 34 37 34 47 68 68 64 67 69
49 44 40 34 29 30 33 34 33 33 34 42 52 54 47 41 25 12 43 47 35 42 44 43 40 40 46 51 56 49 56 51 51 51 48 42 48 52 44 66 70 66 69
54 50 45 37 32 33 35 36 36 35 35 40 45 47 37 38 17 54 31 46 39 26 40 47 56 60 60 62 62 55 64 63 63 61 60 62 64 60 63 52 64 72 67
61 57 50 42 33 34 36 37 38 35 34 35 35 27 16 12 71 59 68 37 52 56 59 58 64 65 67 64 69 73 75 68 72 72 69 71 74 73 67 64 69 74 80
65 62 54 45 37 35 39 38 37 36 36 36 36 31 32 38 24 39 54 72 62 72 80 75 70 68 71 74 72 74 76 78 79 74 79 79 81 83 85 79 74 77 78
67 65 58 51 43 37 41 39 37 37 40 40 39 40 42 42 44 43 64 56 83 86 84 79 92 82 78 78 79 81 83 83 77 81 85 84 86 86 88 89 87 83 86
70 69 64 56 47 39 41 40 39 40 43 43 42 40 40 43 50 49 70 90 91 91 93 98 87 82 85 83 82 87 90 90 89 95 93 90 89 86 86 85 85 88 86
77 73 67 61 51 42 42 42 43 44 46 46 45 40 40 41 43 48 61 83 95 113 113 95 82 86 91 88 94 99 105 108 104 105 104 100 98 97 88 76 82 83 82
75 67 67 63 55 47 45 47 46 47 47 47 44 41 40 41 43 47 56 67 98 102 109 80 103 93 95 96 106 109 117 120 117 114 79 95 103 106 106 103 96 77 77
73 71 69 63 57 49 47 50 49 49 48 46 40 39 40 44 47 52 57 59 61 66 128 89 101 105 111 116 119 115 117 122 120 117 101 100 104 113 107 103 107 102 87
80 76 70 64 58 49 49 52 52 50 48 43 42 41 42 48 52 56 60 62 62 68 96 119 121 122 124 123 123 119 122 120 123 122 111 99 102 100 102 105 105 101 97
83 78 70 64 58 51 52 53 52 51 47 43 41 44 47 51 57 59 61 64 66 66 90 150 122 122 121 123 125 121 119 118 118 109 95 89 88 92 96 99 99 104 102
83 78 72 67 62 57 59 55 52 50 49 44 44 48 50 54 59 61 63 66 67 69 74 109 132 127 123 120 121 114 115 112 108 100 90 84 83 84 88 96 102 106 111
85 80 75 68 62 61 59 55 51 48 48 45 45 48 53 58 61 62 63 68 68 66 70 86 126 120 126 120 116 105 109 117 108 90 85 79 76 73 78 83 88 96 113
86 83 75 70 67 64 59 55 51 49 46 46 46 50 56 59 62 63 64 64 67 69 74 84 104 122 107 108 103 104 110 100 103 98 94 88 85 81 78 80 83 93 100
86 84 79 75 72 66 58 52 50 49 45 45 46 51 56 57 58 56 55 61 64 73 78 83 94 96 106 100 90 98 101 112 108 94 101 95 78 79 78 82 76 64 89
88 88 84 79 71 62 54 52 52 46 47 44 47 52 55 56 54 54 52 56 61 73 85 89 98 99 112 102 102 98 99 104 118 81 83 99 81 100 105 87 87 62 48
89 92 86 77 68 58 52 50 48 51 44 44 47 51 55 53 52 59 64 62 66 70 75 87 106 111 114 111 103 108 103 108 119 102 84 121 95 115 106 93 84 82 70
92 95 87 77 66 53 53 50 52 44 41 43 44 48 52 50 50 60 64 71 79 88 92 87 94 108 109 115 107 111 118 118 129 115 82 110 92 107 103 99 87 77 66
96 97 83 75 64 57 54 56 48 41 39 41 41 44 46 49 58 52 61 79 94 97 80 78 83 87 91 96 96 99 108 98 109 104 80 89 95 94 93 100 90 78 66
95 91 81 72 58 52 61 51 45 36 37 37 41 44 47 51 49 50 63 77 92 96 86 94 97 93 106 116 85 78 91 97 99 113 99 83 80 69 87 96 84 57 51
Wind_Direction_850mb
251 257 263 270 277 284 295 304 307 310 312 314 313 310 308 310 312 311 309 305 299 296 292 289 286 283 282 280 280 276 270 264 257 255 262 262 265 264 260 259 256 255 253
248 256 261 267 272 281 292 300 307 316 321 320 320 320 321 322 318 314 309 304 298 291 288 283 281 280 280 280 275 274 272 266 262 259 256 255 261 263 261 259 256 254 254
242 249 254 259 267 281 294 303 311 319 321 320 322 326 327 327 323 320 316 313 306 299 290 288 290 289 285 283 279 274 270 271 270 263 252 252 251 263 262 259 259 255 254
239 241 246 251 261 282 294 302 313 321 323 321 322 324 326 330 330 326 321 317 317 313 306 302 298 300 294 292 288 283 277 271 268 267 265 258 252 250 261 263 259 259 255
232 236 244 250 262 282 291 302 313 318 322 322 323 327 333 332 332 326 329 3 352 333 317 313 316 312 306 312 309 315 312 304 288 279 272 272 262 257 253 259 262 259 258
228 232 241 247 261 278 289 298 305 316 324 324 328 328 332 332 330 334 346 329 325 324 312 312 310 310 314 312 308 314 306 301 301 306 305 298 286 261 251 257 260 261 259
229 233 238 244 262 280 289 294 299 311 322 325 327 324 332 336 338 342 323 317 329 302 305 306 306 302 301 300 303 306 304 303 297 295 281 269 266 257 261 248 255 259 259
232 234 237 242 258 276 286 291 296 307 319 327 331 335 336 341 332 319 324 312 314 321 311 304 302 299 299 307 305 301 303 304 306 298 292 291 286 275 261 257 250 251 254
233 234 235 239 250 272 282 283 289 299 310 317 323 327 334 309 320 321 322 318 311 309 306 303 300 299 303 305 305 306 305 302 300 300 297 293 287 282 275 269 262 249 244
234 234 235 239 249 269 279 279 283 294 302 307 311 313 311 303 303 307 311 311 311 309 310 307 304 305 307 306 305 304 307 306 304 305 302 297 289 285 278 275 269 258 249
234 235 236 239 245 261 275 274 281 291 298 302 304 309 308 305 302 292 297 304 306 309 310 310 312 311 313 313 311 306 305 304 301 297 295 294 292 287 284 277 271 266 257
234 235 236 239 243 254 270 273 279 285 292 297 300 303 302 302 306 303 303 309 310 313 310 309 309 314 316 314 309 308 307 305 302 299 296 291 286 283 280 277 276 271 262
232 234 235 238 243 252 267 272 275 283 290 294 297 299 296 300 301 304 302 307 307 310 310 309 310 316 313 314 312 310 306 304 302 298 294 291 285 279 275 278 276 275 271
239 236 235 236 241 248 261 267 271 278 283 289 294 296 299 303 302 303 302 305 308 306 305 306 309 310 310 309 306 304 300 299 299 297 291 287 284 282 277 271 270 270 268
235 233 234 236 238 245 257 264 269 276 282 287 288 293 298 301 302 301 300 296 295 302 304 304 306 304 303 303 302 300 298 296 295 292 288 285 284 283 276 273 265 263 268
233 232 233 234 238 244 256 262 268 274 279 283 286 291 293 295 297 297 295 293 290 286 289 297 297 298 301 302 301 298 296 296 292 291 288 283 282 278 276 270 265 263 262
233 232 232 234 238 245 254 261 268 274 276 279 284 286 290 294 295 295 294 293 290 285 282 294 294 299 300 301 302 304 305 303 299 293 286 282 279 277 274 271 268 263 259
232 231 232 232 236 242 251 257 263 270 274 279 283 287 292 295 296 298 299 297 294 294 285 291 300 301 302 304 307 304 306 307 302 296 288 283 281 280 278 276 271 265 257
231 230 230 232 236 242 248 255 261 267 273 279 284 290 296 298 299 302 303 301 300 294 289 288 297 302 305 305 303 298 301 304 300 294 289 285 283 282 279 277 275 269 255
230 229 228 230 234 241 247 254 260 267 272 279 286 293 297 299 302 303 303 299 300 298 294 283 283 291 291 296 296 295 297 294 295 295 293 289 289 288 285 276 276 266 263
229 227 225 227 232 238 244 250 260 268 273 280 290 296 297 300 302 305 295 293 296 295 289 282 279 282 286 289 289 294 292 294 290 289 293 298 298 296 289 282 273 280 269
226 224 224 226 231 237 242 250 259 266 272 283 293 296 299 302 304 305 298 288 287 290 288 286 285 282 282 282 286 284 285 288 288 288 289 286 287 289 293 288 270 274 273
223 222 222 225 231 235 242 252 266 267 277 287 294 297 300 302 307 315 311 295 294 290 285 287 286 283 284 286 286 284 282 281 280 284 282 282 284 286 291 296 281 280 280
222 220 219 224 227 230 241 255 258 265 275 285 289 299 302 310 315 305 306 304 302 299 296 293 287 288 286 288 285 283 283 278 280 279 273 273 278 281 288 294 285 279 273
218 217 217 221 222 230 242 246 254 264 273 280 294 299 307 310 309 304 304 305 304 305 301 297 293 286 284 284 283 284 281 278 274 276 270 266 274 278 285 290 287 275 269
218 216 216 218 219 233 240 246 248 252 266 285 294 303 309 306 303 305 306 306 301 310 317 312 303 291 287 291 291 278 281 272 270 275 268 275 279 279 282 283 287 278 262